Home   Weather   Timmins   Past weeks

Flag for Canada Past Weather in Timmins, Ontario, Canada — Yesterday and Last 2 Weeks

Now
61 °F

Partly sunny.


Feels Like: 61 °F
Forecast: 52 / 62 °F
Wind: 9 mph from Northwest

Location: Timmins

Current Time: Aug 31, 2016 at 12:08:30 PM

Latest Report: Aug 31, 2016 at 11:00 AM


Visibility: 15 mi

Pressure: 30.01 "Hg

Humidity: 77%

Dew Point: 54 °F

Location of TimminsLocation

Past Weather in Timmins — Graph

°F

Timmins Temperature Yesterday

Maximum temperature yesterday: 75 °F (at 6:00 PM)
Minimum temperature yesterday: 59 °F (at 11:00 PM)
Average temperature yesterday: 66 °F

High & Low Weather Summary for the Past Weeks

 TemperatureHumidityPressure
High84 °F (Aug 18, 4:00 PM)100% (Aug 17, 4:00 AM)30.31 "Hg (Aug 17, 4:00 AM)
Low43 °F (Aug 27, 5:00 AM)43% (Aug 18, 4:00 PM)29.25 "Hg (Aug 21, 3:00 AM)
Average63 °F83%29.94 "Hg
* Reported Aug 16 11:00 AM — Aug 31 11:00 AM, Timmins, Weather by CustomWeather, © 2016

Note: Actual official high and low records may vary slightly from our data, if they occured in-between our weather recording intervals... More about our weather records

Advertising

Timmins Weather History for the Previous 24 Hours

Scroll right to see more
 ConditionsComfort  
Time TempWeatherWind HumidityBarometerVisibility
11:00 AM
Wed, Aug 31
61 °FPartly sunny.9 mph77%30.01 "Hg15 mi
10:00 AM57 °FDrizzle. Broken clouds.8 mph88%30.01 "Hg12 mi
9:00 AM57 °FPartly sunny.8 mph88%30.00 "Hg15 mi
8:00 AM55 °FPartly sunny.6 mph88%30.00 "Hg15 mi
7:00 AM54 °FPassing clouds.5 mph88%30.00 "Hg15 mi
6:00 AM55 °FPartly cloudy.5 mph88%29.98 "Hg15 mi
5:00 AM55 °FPassing clouds.6 mph88%29.98 "Hg15 mi
4:00 AM54 °FPassing clouds.5 mph88%29.99 "Hg15 mi
3:00 AM52 °FPassing clouds.6 mph94%30.00 "Hg15 mi
2:00 AM54 °FPassing clouds.5 mph88%29.99 "Hg15 mi
1:00 AM55 °FPassing clouds.6 mph82%29.98 "Hg15 mi
12:00 AM57 °FOvercast.5 mph82%29.98 "Hg15 mi
11:00 PM
Tue, Aug 30
59 °FPassing clouds.6 mph77%29.98 "Hg15 mi
10:00 PM61 °FPassing clouds.6 mph72%29.98 "Hg15 mi
9:00 PM64 °FPartly sunny.8 mph68%29.96 "Hg15 mi
8:00 PM68 °FPartly sunny.9 mph64%29.94 "Hg15 mi
7:00 PM72 °FScattered clouds.7 mph61%29.93 "Hg15 mi
6:00 PM75 °FBroken clouds.10 mph57%29.93 "Hg15 mi
5:00 PM73 °FPartly sunny.7 mph65%29.92 "Hg15 mi
4:00 PM73 °FPartly sunny.6 mph69%29.93 "Hg15 mi
3:00 PM72 °FPartly sunny.7 mph69%29.96 "Hg15 mi
2:00 PM72 °FPartly sunny.13 mph73%29.98 "Hg15 mi
1:00 PM72 °FPartly sunny.7 mph78%29.97 "Hg15 mi
12:00 PM68 °FOvercast.8 mph83%29.99 "Hg15 mi
Weather by CustomWeather, © 2016

See weather overviewHow to use our weather pages